{"data":{"norad_id":59473,"epoch":"2026-05-24T19:00:33.223680Z","epoch_age_seconds":103332,"freshness":"FRESH","line1":"1 59473U 24068U   26144.79205120  .00000857  00000+0  40656-4 0  9995","line2":"2 59473  43.0007 324.5538 0001027 266.2093  93.8641 15.27572778120164","mean_motion":15.27572778,"eccentricity":0.0001027,"inclination_deg":43.0007,"raan_deg":324.5538,"arg_perigee_deg":266.2093,"mean_anomaly_deg":93.8641,"bstar":4.0656e-5,"rev_number":12016,"period_min":94.267194384371,"perigee_km":482.36607535797,"apogee_km":483.77536742394,"semimajor_km":6861.207721391,"source":"CELESTRAK","updated_at":"2026-05-25T13:38:18.951344Z"}}